www.pogodaiklimat.ru

Погода и климат >> Архив погоды >> Россия >> Орловская область >> Дмитровск-Орловский


ПОГОДА в Дмитровск-Орловский

  • Прогноз погоды в Дмитровск-Орловский
  • Монитор погоды в Дмитровск-Орловский

АРХИВ ПОГОДЫ в Дмитровск-Орловский

Время (UTC), дата Ветер
(напр.,м/с)
 
Видим.   Явления Облачность Т
(С)
Тd
(С)
f
(%)
Тe
(С)
Тes
(С)
Комфортность P
(гПа)
Po
(гПа)
Тmin
(С)
Tmax
(С)
R
(мм)
R24
(мм)
S
(см)
00 18.08 З 2 10 км слаб. ливневой дождь 10/8 300 м
[Cb cap Ac und]
+14.0 +13.0 94 +13 +13 1009.0 984.2
03 18.08 З 2 8000 м дымка {ливн. осадки} 10/10 600 м
[Sc diur, vesp]
+13.9 +12.9 94 +13 +13 1009.0 984.1 +13.8 5
06 18.08 З 2 30 км в посл. час ливневой дождь 10/10 300 м
[Cb cap]
+14.6 +13.2 91 +14 +14 1009.7 984.9 +13.8 1
09 18.08 З 3 50 км {ливн. осадки} 10/10 600 м
[Sc]
+15.7 +13.4 86 +15 +15 1010.4 985.7
12 18.08 З 3 19 км слаб. ливневой дождь 10/10 300 м
[Cb cap]
+16.2 +13.5 84 +16 +16 1012.0 987.3
15 18.08 З 2 40 км {ливн. осадки} 10/10 600 м
[Sc]
+16.2 +13.4 83 +16 +16 1013.5 988.7 0.8
18 18.08 СЗ 2 10 км {ливн. осадки} 10/10 600 м
[Sc]
+15.5 +13.7 89 +15 +15 1014.9 990.0 +17.2 0.3
21 18.08 З 1 10 км 10/10 600 м
[Sc]
+14.9 +13.5 91 +15 +15 1015.6 990.7
00 19.08 З 1 4000 м дымка ясно +12.9 +12.0 94 +13 +13 1018.6 993.3
03 19.08 З 1 12 км 3/0
[Ci fib]
+12.2 +11.3 94 +12 +12 1017.8 992.6 +11.7
06 19.08 З 1 50 км ясно +17.6 +13.5 77 +19 +25 1019.6 994.7 +11.7
09 19.08 С 2 50 км 5/5 1000 м
[Cu hum]
+23.1 +12.5 51 +26 +32 жарко 1018.6 994.3
12 19.08 З 2 50 км 3/3 1000 м
[Cu hum]
+25.2 +10.6 40 +26 +34 жарко 1019.0 994.7
15 19.08 С 1 50 км ясно +25.6 +10.4 38 +26 +28 жарко 1018.9 994.8
18 19.08 В 1 20 км ясно +17.7 +14.0 79 +19 +19 1020.6 995.8 +26.4
21 19.08 штиль 0 10 км ясно +13.2 +11.9 92 +13 +13 1021.7 996.5
00 20.08 штиль 0 10 км ясно +11.5 +10.4 93 +11 +11 1022.8 997.3
03 20.08 штиль 0 28 км ясно +10.4 +9.3 93 +10 +10 1023.0 997.5 +10.3
06 20.08 штиль 0 50 км ясно +22.3 +14.8 63 +26 +33 жарко 1023.1 998.6 +10.3
09 20.08 Ю 1 50 км 3/3 1000 м
[Cu hum]
+26.9 +9.5 33 +27 +37 жарко 1022.6 998.5
12 20.08 С 1 50 км ясно +28.1 +9.8 32 +28 +39 жарко 1022.8 998.7
15 20.08 С 1 50 км ясно +28.0 +10.4 33 +28 +30 жарко 1021.7 997.7
18 20.08 В 1 20 км ясно +19.4 +15.1 76 +22 +22 комфорт 1023.4 998.7 +29.3
21 20.08 штиль 0 20 км ясно +15.5 +13.9 90 +15 +15 1024.3 999.2
00 21.08 штиль 0 10 км 3/0
[Ci fib]
+14.1 +12.8 92 +14 +14 1025.3 1000.0
03 21.08 штиль 0 24 км 5/0
[Ci fib]
+13.4 +12.1 92 +13 +13 1025.0 999.7 +13.2
06 21.08 В 1 50 км 5/0
[Ci fib]
+24.1 +14.7 56 +27 +33 жарко 1024.3 999.9 +13.2
09 21.08 ЮВ 2 50 км 3/0
[Ci fib]
+28.1 +13.4 40 +30 +41 жарко 1023.4 999.4
12 21.08 СВ 2 50 км 8/4 1000 м
[Cu hum Ci fib]
+29.1 +12.5 36 +30 +33 жарко 1022.7 998.7
15 21.08 ЮВ 1 50 км 3/3 1000 м
[Cu hum]
+29.0 +13.7 39 +31 +32 жарко 1020.9 997.0
18 21.08 В 1 20 км ясно +21.7 +17.1 75 +26 +26 душно 1021.4 996.9 +30.0
21 21.08 В 1 20 км ясно +18.5 +15.7 84 +20 +20 1021.7 996.9
00 22.08 штиль 0 10 км ясно +15.4 +14.1 92 +15 +15 1022.4 997.3
03 22.08 штиль 0 24 км ясно +14.6 +13.4 93 +14 +14 1021.6 996.5 +14.3
06 22.08 ЮЗ 1 50 км ясно +24.4 +15.9 59 +28 +34 душно 1020.9 996.7 +14.3
09 22.08 СЗ 1 50 км 8/3 1000 м
[Cu hum Ci]
+28.9 +12.8 37 +30 +39 жарко 1020.3 996.4
12 22.08 С 2 50 км 5/5 1000 м
[Cu med, cong]
+29.5 +13.7 38 +31 +36 жарко 1021.3 997.3
15 22.08 С 3 50 км 9/3 1000 м
[Cu hum Ci fib]
+23.5 +16.7 66 +27 +28 душно 1021.7 997.4
18 22.08 СВ 3
{10}
20 км 10/10 600 м
[Sc]
+18.5 +14.5 78 +19 +19 1024.2 999.4 +30.2
21 22.08 СВ 3 20 км 8/0
[Ac trans Ci]
+16.4 +12.0 75 +16 +16 1025.5 1000.4
00 23.08 СВ 3 20 км 9/4 600 м
[Sc Ci sp]
+15.9 +11.3 74 +15 +15 1026.5 1001.3
03 23.08 В 3 45 км 9/3 600 м
[Sc Ci]
+14.4 +10.9 79 +13 +13 1026.4 1001.1 +14.4
06 23.08 В 3 50 км 8/0
[Ac trans Ci fib]
+17.2 +11.5 69 +17 +20 1026.8 1001.8 +14.4
09 23.08 В 4 50 км 9/3 1000 м
[Cu hum Ac trans Ci fib]
+21.6 +11.7 53 +24 +27 комфорт 1026.6 1001.9
12 23.08 СВ 3 50 км 9/0
[Ac trans Ci sp]
+23.3 +10.7 45 +25 +26 комфорт 1027.3 1002.7
15 23.08 СВ 3 50 км 9/0
[Ac und Ci]
+22.6 +9.5 43 +24 +25 комфорт 1025.6 1001.1
18 23.08 СВ 1 20 км 4/0
[Ac trans Ci fib]
+17.8 +9.9 60 +19 +19 1026.4 1001.4 +23.8
21 23.08 штиль 0 20 км 3/0
[Ci fib]
+12.9 +10.1 83 +12 +12 1026.8 1001.4
00 24.08 штиль 0 20 км ясно +10.5 +8.9 90 +10 +10 1028.5 1002.7
03 24.08 штиль 0 45 км ясно +9.0 +7.8 92 +8 +8 1027.5 1001.7 +9.0
06 24.08 ЮВ 1 50 км ясно +18.3 +11.4 64 +20 +26 1026.7 1001.8 +8.9
09 24.08 СВ 2 50 км ясно +23.2 +6.4 34 +24 +36 комфорт 1025.8 1001.3
12 24.08 СВ 1 50 км ясно +25.1 +7.2 32 +25 +35 комфорт 1025.8 1001.3
18 24.08 штиль 0 20 км 3/0
[Ci fib]
+14.8 +12.6 87 +14 +14 1025.1 999.9 +25.4
21 24.08 штиль 0 10 км 4/0
[Ci fib]
+11.3 +10.1 92 +11 +11 1025.5 1000.0

 

Местоположение метеостанции Дмитровск-Орловский (Орловская область, Россия): широта 52.50 долгота 35.15 высота над уровнем моря 212 м.

В архиве по умолчанию представлена погода в Дмитровск-Орловский за последнюю неделю. Архивные данные за месяц целиком и за предыдущие месяцы, начиная с января 2011 года, Вы можете получить, выбрав интересующий диапазон дат из раскрывающегося списка и нажав кнопку "Ввод!".


*Определитесь, кто Вы:
робот инопланетянин человек

Внимание! Время в таблицах - всемирное. Для получения местного времени необходимо прибавить поправку, которая равна 3 ч.

Смотрите также архив погоды в соседних городах и на ближайших метеорологических станциях:

Погода в Железногорске (Курская область, Россия) (22 км)
Погода в Навле (Брянская область, Россия) (57 км)
Погода в Фатеже (Курская область, Россия) (68 км)
Погода в Карачеве (Брянская область, Россия) (71 км)
Погода в Орле (Орловская область, Россия) (75 км)
Погода в Понырях (Курская область, Россия) (81 км)
Погода в Трубчевске (Брянская область, Россия) (94 км)
Погода в Дружбе (Сумская область, Украина) (96 км)
Погода в Брянске (Брянская область, Россия) (100 км)
Погода в Курчатове (Курская область, Россия) (101 км)

Пояснения к столбцам:

Ветер - указаны скорость ветра в м/с - средняя за 10 мин, порывы в срок и между сроками (в фигурных скобках) и направление, откуда дует ветер: С - северный, СВ - северо-восточный, В - восточный, ЮВ - юго-восточный, Ю - южный, ЮЗ - юго-западный, З - западный, СЗ - северо-западный.
Видимость - горизонтальная дальность видимости в метрах или километрах. При видимости от 1 до 10 км при отсутствии осадков обычно наблюдается дымка, при ухудшении видимости до 1 км и менее - туман. В сухую погоду видимость может ухудшаться дымом, пылью или мглою.
Явления - указаны атмосферные явления, наблюдавшиеся в срок или в последний час перед сроком; фигурными скобками обозначены явления, наблюдавшиеся между сроками (за 1-3 часа до срока); квадратными скобками обозначены град или гололедные отложения с указанием их диаметра в мм.
Облачность - указаны через наклонную черту общая и нижняя облачность в баллах и высота нижней границы облаков в метрах; квадратными скобками обозначены формы облаков: Ci - перистые, Cs - перисто-слоистые, Cc - перисто-кучевые, Ac - высококучевые, As - высокослоистые, Sc - слоисто-кучевые, Ns - слоисто-дождевые, Cu - кучевые, Cb - кучево-дождевые. Подробнее классификацию облаков см. в Атласе облаков (PDF).
T - Температура воздуха - температура, измеренная на высоте 2 м над землей.
Td - Температура точки росы - температура, при понижении до которой содержащийся в воздухе водяной пар достигнет насыщения.
f - Относительная влажность воздуха - влажноcть воздуха, измеренная на высоте 2 м над землей.
Te - Эффективная температура - температура, которую ощущает одетый по сезону человек в тени. Характеристика душности погоды. При расчете учитывается влияние влажности воздуха и скорости ветра на теплоощущения человека.
Tes - Эффективная температура на солнце - температура, которую ощущает человек, с поправкой на солнечный нагрев. Характеристика знойности погоды. Зависит от высоты солнца над горизонтом, облачности и скорости ветра. Ночью, в пасмурную погоду, а также при ветре 12 м/с и более поправка равна нулю.
P - Атмосферное давление - приведенное к уровню моря атмосферное давление.
Po - Атмосферное давление - измеренное на уровне метеостанции атмосферное давление.
Tmin - Минимальная температура - минимум температуры воздуха на высоте 2 м над землей.
Tmax - Максимальная температура - максимум температуры воздуха на высоте 2 м над землей.
R - Количество осадков - Количество выпавших осадков за период времени, мм. При наведении курсора мыши на число - период времени, за который выпало указанное количество осадков.
R24 - Количество осадков - Количество выпавших осадков за 24 часа, мм.
S - Снежный покров - Высота снежного покрова, см. При наведении курсора мыши на число - состояние снежного покрова и степень покрытия местности в баллах.